| time (UTC) | temp F | wind direction | speed MPH | gust MPH | rain 1hr in | rain 24hr in | rain mn in | humidity % | barometer mb |
| 20260508230036 | 52 | 270 | 1.0 | 4.0 | 0.00 | 0.00 | 0.00 | 34 | 1006.4 |
| 20260508225016 | 52 | 315 | 1.0 | 4.0 | 0.00 | 0.00 | 0.00 | 35 | 1006.4 |
| 20260508224016 | 53 | 293 | 1.0 | 2.0 | 0.00 | 0.00 | 0.00 | 34 | 1006.4 |
| 20260508223036 | 53 | 270 | 3.0 | 6.0 | 0.00 | 0.00 | 0.00 | 32 | 1006.3 |
| 20260508222016 | 53 | 270 | 2.0 | 4.0 | 0.00 | 0.00 | 0.00 | 36 | 1006.4 |
| 20260508221016 | 53 | 270 | 1.0 | 4.0 | 0.00 | 0.00 | 0.00 | 34 | 1006.4 |
| 20260508220036 | 53 | 270 | 2.0 | 3.0 | 0.00 | 0.00 | 0.00 | 34 | 1006.5 |
| 20260508215036 | 52 | 248 | 1.0 | 4.0 | 0.00 | 0.00 | 0.00 | 36 | 1006.5 |
| 20260508214016 | 52 | 0.0 | 2.0 | 0.00 | 0.00 | 0.00 | 39 | 1006.6 | |
| 20260508213016 | 53 | 270 | 1.0 | 4.0 | 0.00 | 0.00 | 0.00 | 35 | 1006.5 |
| 20260508212016 | 53 | 225 | 1.0 | 3.0 | 0.00 | 0.00 | 0.00 | 36 | 1006.5 |
| 20260508211017 | 52 | 0.0 | 4.0 | 0.00 | 0.00 | 0.00 | 36 | 1006.7 | |
| 20260508210016 | 52 | 225 | 2.0 | 7.0 | 0.00 | 0.00 | 0.00 | 37 | 1006.7 |
| 20260508205016 | 52 | 180 | 1.0 | 2.0 | 0.00 | 0.00 | 0.00 | 38 | 1006.8 |
| 20260508204016 | 52 | 0.0 | 2.0 | 0.00 | 0.00 | 0.00 | 37 | 1006.8 | |
| 20260508203016 | 52 | 0.0 | 2.0 | 0.00 | 0.00 | 0.00 | 37 | 1006.9 | |
| 20260508202016 | 52 | 248 | 1.0 | 3.0 | 0.00 | 0.00 | 0.00 | 38 | 1006.9 |
| 20260508201016 | 52 | 0.0 | 1.0 | 0.00 | 0.00 | 0.00 | 40 | 1006.8 | |
| 20260508200016 | 52 | 270 | 1.0 | 3.0 | 0.00 | 0.00 | 0.00 | 36 | 1006.9 |
| 20260508195016 | 52 | 315 | 2.0 | 5.0 | 0.00 | 0.00 | 0.00 | 33 | 1006.9 |
| 20260508194016 | 53 | 293 | 2.0 | 6.0 | 0.00 | 0.00 | 0.00 | 35 | 1007.0 |
| 20260508193016 | 52 | 270 | 1.0 | 3.0 | 0.00 | 0.00 | 0.00 | 35 | 1007.1 |
| 20260508192016 | 51 | 270 | 3.0 | 6.0 | 0.00 | 0.00 | 0.00 | 36 | 1007.0 |
| 20260508191036 | 51 | 270 | 2.0 | 6.0 | 0.00 | 0.00 | 0.00 | 37 | 1007.1 |
| 20260508190016 | 51 | 293 | 1.0 | 6.0 | 0.00 | 0.00 | 0.00 | 34 | 1007.1 |
| 20260508185016 | 51 | 315 | 1.0 | 6.0 | 0.00 | 0.00 | 0.00 | 34 | 1007.1 |
| 20260508184016 | 51 | 270 | 2.0 | 6.0 | 0.00 | 0.00 | 0.00 | 35 | 1007.2 |
| 20260508183016 | 51 | 270 | 1.0 | 4.0 | 0.00 | 0.00 | 0.00 | 35 | 1007.3 |
| 20260508182037 | 51 | 270 | 3.0 | 7.0 | 0.00 | 0.00 | 0.00 | 35 | 1007.3 |
| 20260508181016 | 51 | 270 | 1.0 | 4.0 | 0.00 | 0.00 | 0.00 | 35 | 1007.2 |
| 20260508180016 | 51 | 270 | 1.0 | 4.0 | 0.00 | 0.00 | 0.00 | 37 | 1007.2 |
| 20260508175016 | 51 | 293 | 1.0 | 3.0 | 0.00 | 0.00 | 0.00 | 36 | 1007.3 |
| 20260508174016 | 51 | 0.0 | 2.0 | 0.00 | 0.00 | 0.00 | 39 | 1007.4 | |
| 20260508173016 | 50 | 0.0 | 0.0 | 0.00 | 0.00 | 0.00 | 39 | 1007.4 | |
| 20260508172016 | 50 | 293 | 1.0 | 4.0 | 0.00 | 0.00 | 0.00 | 39 | 1007.4 |
| 20260508171016 | 50 | 315 | 1.0 | 3.0 | 0.00 | 0.00 | 0.00 | 40 | 1007.5 |
| 20260508170016 | 49 | 315 | 2.0 | 4.0 | 0.00 | 0.00 | 0.00 | 37 | 1007.6 |
| 20260508165016 | 49 | 270 | 1.0 | 3.0 | 0.00 | 0.00 | 0.00 | 43 | 1007.5 |
| 20260508164017 | 49 | 270 | 1.0 | 4.0 | 0.00 | 0.00 | 0.00 | 47 | 1007.5 |
| 20260508163016 | 50 | 203 | 1.0 | 3.0 | 0.00 | 0.00 | 0.00 | 42 | 1007.5 |
| 20260508162036 | 51 | 203 | 1.0 | 3.0 | 0.00 | 0.00 | 0.00 | 45 | 1007.6 |
| 20260508161016 | 51 | 248 | 1.0 | 6.0 | 0.00 | 0.00 | 0.00 | 50 | 1007.7 |
| 20260508160016 | 50 | 248 | 1.0 | 3.0 | 0.00 | 0.00 | 0.00 | 48 | 1007.7 |
| 20260508155016 | 50 | 0.0 | 2.0 | 0.00 | 0.01 | 0.00 | 48 | 1007.9 | |
| 20260508154016 | 50 | 225 | 2.0 | 6.0 | 0.00 | 0.02 | 0.00 | 47 | 1007.9 |
| 20260508153016 | 50 | 270 | 2.0 | 6.0 | 0.00 | 0.02 | 0.00 | 46 | 1007.9 |
| 20260508152016 | 50 | 248 | 1.0 | 2.0 | 0.00 | 0.04 | 0.00 | 51 | 1008.0 |
| 20260508151016 | 48 | 270 | 1.0 | 3.0 | 0.00 | 0.06 | 0.00 | 52 | 1008.1 |
| 20260508150016 | 49 | 293 | 1.0 | 4.0 | 0.00 | 0.07 | 0.00 | 52 | 1008.2 |
| 20260508145016 | 47 | 0.0 | 3.0 | 0.00 | 0.08 | 0.00 | 57 | 1008.4 | |
| 20260508144036 | 46 | 0.0 | 3.0 | 0.00 | 0.08 | 0.00 | 55 | 1008.4 | |
| 20260508143036 | 46 | 158 | 2.0 | 4.0 | 0.00 | 0.08 | 0.00 | 55 | 1008.5 |
| 20260508142016 | 46 | 90 | 2.0 | 3.0 | 0.00 | 0.08 | 0.00 | 54 | 1008.5 |
| 20260508141016 | 46 | 315 | 1.0 | 2.0 | 0.00 | 0.08 | 0.00 | 55 | 1008.5 |
| 20260508140016 | 45 | 0.0 | 0.0 | 0.00 | 0.08 | 0.00 | 60 | 1008.4 | |
| 20260508135016 | 44 | 0.0 | 2.0 | 0.00 | 0.08 | 0.00 | 58 | 1008.5 | |
| 20260508134016 | 43 | 0.0 | 0.0 | 0.00 | 0.08 | 0.00 | 61 | 1008.6 | |
| 20260508133016 | 43 | 0.0 | 0.0 | 0.00 | 0.08 | 0.00 | 60 | 1008.7 | |
| 20260508132016 | 43 | 0.0 | 0.0 | 0.00 | 0.08 | 0.00 | 62 | 1008.7 | |
| 20260508131016 | 43 | 0.0 | 2.0 | 0.00 | 0.08 | 0.00 | 62 | 1008.8 | |
| 20260508130016 | 43 | 315 | 1.0 | 3.0 | 0.00 | 0.08 | 0.00 | 61 | 1008.8 |
| 20260508125036 | 43 | 270 | 1.0 | 2.0 | 0.00 | 0.08 | 0.00 | 61 | 1008.9 |
| 20260508124037 | 43 | 0.0 | 1.0 | 0.00 | 0.08 | 0.00 | 62 | 1008.8 | |
| 20260508123016 | 43 | 270 | 1.0 | 3.0 | 0.00 | 0.08 | 0.00 | 61 | 1008.8 |
| 20260508122016 | 43 | 0.0 | 0.0 | 0.00 | 0.08 | 0.00 | 62 | 1008.7 | |
| 20260508121016 | 42 | 0.0 | 2.0 | 0.00 | 0.08 | 0.00 | 62 | 1008.7 | |
| 20260508120016 | 42 | 0.0 | 0.0 | 0.00 | 0.08 | 0.00 | 63 | 1008.7 | |
| 20260508115056 | 42 | 0.0 | 0.0 | 0.00 | 0.08 | 0.00 | 63 | 1008.7 | |
| 20260508114016 | 42 | 0.0 | 0.0 | 0.00 | 0.08 | 0.00 | 62 | 1008.6 | |
| 20260508113016 | 41 | 0.0 | 0.0 | 0.00 | 0.08 | 0.00 | 64 | 1008.5 | |
| 20260508112016 | 41 | 0.0 | 0.0 | 0.00 | 0.08 | 0.00 | 64 | 1008.4 | |
| 20260508111016 | 40 | 0.0 | 0.0 | 0.00 | 0.08 | 0.00 | 65 | 1008.4 | |
| 20260508110016 | 40 | 0.0 | 0.0 | 0.00 | 0.08 | 0.00 | 66 | 1008.4 | |
| 20260508105036 | 40 | 0.0 | 0.0 | 0.00 | 0.08 | 0.00 | 67 | 1008.4 | |
| 20260508104016 | 39 | 0.0 | 0.0 | 0.00 | 0.08 | 0.00 | 66 | 1008.3 | |
| 20260508103036 | 39 | 0.0 | 0.0 | 0.00 | 0.08 | 0.00 | 66 | 1008.3 | |
| 20260508102016 | 39 | 0.0 | 0.0 | 0.00 | 0.08 | 0.00 | 65 | 1008.2 | |
| 20260508101016 | 39 | 0.0 | 0.0 | 0.00 | 0.08 | 0.00 | 64 | 1008.1 | |
| 20260508100056 | 39 | 0.0 | 0.0 | 0.00 | 0.08 | 0.00 | 64 | 1008.0 | |
| 20260508095016 | 40 | 0.0 | 0.0 | 0.00 | 0.08 | 0.00 | 66 | 1008.0 | |
| 20260508094016 | 40 | 0.0 | 0.0 | 0.00 | 0.08 | 0.00 | 66 | 1008.0 | |
| 20260508093016 | 40 | 0.0 | 0.0 | 0.00 | 0.08 | 0.00 | 64 | 1008.0 | |
| 20260508092016 | 40 | 0.0 | 0.0 | 0.00 | 0.08 | 0.00 | 63 | 1007.9 | |
| 20260508091016 | 40 | 0.0 | 0.0 | 0.00 | 0.08 | 0.00 | 62 | 1007.9 | |
| 20260508090016 | 40 | 0.0 | 0.0 | 0.00 | 0.08 | 0.00 | 63 | 1007.8 | |
| 20260508085016 | 40 | 0.0 | 0.0 | 0.00 | 0.08 | 0.00 | 60 | 1007.9 | |
| 20260508084016 | 40 | 0.0 | 0.0 | 0.00 | 0.08 | 0.00 | 60 | 1007.9 | |
| 20260508083016 | 40 | 0.0 | 0.0 | 0.00 | 0.08 | 0.00 | 61 | 1007.9 | |
| 20260508082016 | 40 | 0.0 | 0.0 | 0.00 | 0.08 | 0.00 | 62 | 1007.8 | |
| 20260508081036 | 40 | 0.0 | 0.0 | 0.00 | 0.08 | 0.00 | 64 | 1007.9 | |
| 20260508080016 | 40 | 0.0 | 0.0 | 0.00 | 0.08 | 0.00 | 62 | 1007.8 | |
| 20260508075016 | 40 | 0.0 | 0.0 | 0.00 | 0.08 | 0.00 | 63 | 1007.7 | |
| 20260508074037 | 40 | 0.0 | 0.0 | 0.00 | 0.08 | 0.00 | 61 | 1007.7 | |
| 20260508073016 | 40 | 0.0 | 0.0 | 0.00 | 0.08 | 0.00 | 62 | 1007.6 | |
| 20260508072016 | 40 | 0.0 | 0.0 | 0.00 | 0.08 | 0.00 | 62 | 1007.5 | |
| 20260508071037 | 40 | 0.0 | 0.0 | 0.00 | 0.08 | 0.00 | 63 | 1007.5 | |
| 20260508070017 | 41 | 0.0 | 0.0 | 0.00 | 0.08 | 0.00 | 60 | 1007.5 | |
| 20260508065016 | 41 | 0.0 | 0.0 | 0.00 | 0.08 | 0.00 | 61 | 1007.5 | |
| 20260508064016 | 41 | 0.0 | 0.0 | 0.00 | 0.08 | 0.00 | 61 | 1007.5 | |
| 20260508063016 | 40 | 0.0 | 0.0 | 0.00 | 0.08 | 0.00 | 59 | 1007.6 | |
| 20260508062016 | 40 | 0.0 | 0.0 | 0.00 | 0.08 | 0.00 | 61 | 1007.6 | |
| 20260508061056 | 40 | 0.0 | 0.0 | 0.00 | 0.08 | 0.00 | 61 | 1007.6 | |
| 20260508060016 | 41 | 0.0 | 0.0 | 0.00 | 0.08 | 0.00 | 60 | 1007.6 | |
| 20260508055016 | 41 | 0.0 | 0.0 | 0.00 | 0.08 | 0.00 | 62 | 1007.6 | |
| 20260508054056 | 41 | 0.0 | 0.0 | 0.00 | 0.08 | 0.00 | 60 | 1007.7 | |
| 20260508053016 | 41 | 0.0 | 0.0 | 0.00 | 0.08 | 0.00 | 60 | 1007.8 | |
| 20260508052016 | 41 | 0.0 | 0.0 | 0.00 | 0.08 | 0.00 | 56 | 1007.8 | |
| 20260508051016 | 41 | 0.0 | 0.0 | 0.00 | 0.08 | 0.00 | 59 | 1007.9 | |
| 20260508050016 | 42 | 0.0 | 0.0 | 0.00 | 0.08 | 0.00 | 56 | 1007.8 | |
| 20260508045016 | 42 | 0.0 | 0.0 | 0.00 | 0.08 | 0.00 | 56 | 1007.8 | |
| 20260508044016 | 41 | 0.0 | 0.0 | 0.00 | 0.08 | 0.00 | 55 | 1007.9 | |
| 20260508043016 | 41 | 0.0 | 0.0 | 0.00 | 0.08 | 0.00 | 57 | 1007.8 | |
| 20260508042016 | 42 | 0.0 | 0.0 | 0.00 | 0.08 | 0.00 | 55 | 1007.9 | |
| 20260508041017 | 42 | 0.0 | 0.0 | 0.00 | 0.08 | 0.00 | 54 | 1007.9 | |
| 20260508040056 | 43 | 0.0 | 0.0 | 0.00 | 0.08 | 0.00 | 52 | 1007.9 | |
| 20260508035016 | 43 | 0.0 | 0.0 | 0.00 | 0.08 | 0.08 | 52 | 1007.8 | |
| 20260508034016 | 44 | 0.0 | 0.0 | 0.00 | 0.08 | 0.08 | 51 | 1007.8 | |
| 20260508033017 | 44 | 0.0 | 1.0 | 0.00 | 0.08 | 0.08 | 51 | 1007.9 | |
| 20260508032017 | 44 | 0.0 | 0.0 | 0.00 | 0.08 | 0.08 | 50 | 1007.9 | |
| 20260508031016 | 44 | 0.0 | 2.0 | 0.00 | 0.08 | 0.08 | 51 | 1007.8 | |
| 20260508030036 | 44 | 270 | 1.0 | 4.0 | 0.00 | 0.08 | 0.08 | 50 | 1007.9 |
| 20260508025016 | 44 | 0.0 | 0.0 | 0.00 | 0.08 | 0.08 | 55 | 1007.8 | |
| 20260508024016 | 45 | 0.0 | 0.0 | 0.00 | 0.08 | 0.08 | 53 | 1007.8 | |
| 20260508023017 | 45 | 0.0 | 0.0 | 0.00 | 0.08 | 0.08 | 54 | 1007.8 | |
| 20260508022017 | 45 | 0.0 | 0.0 | 0.00 | 0.08 | 0.08 | 53 | 1007.8 | |
| 20260508021016 | 45 | 0.0 | 0.0 | 0.00 | 0.08 | 0.08 | 48 | 1007.7 | |
| 20260508020016 | 46 | 0.0 | 0.0 | 0.00 | 0.08 | 0.08 | 48 | 1007.7 | |
| 20260508015016 | 46 | 0.0 | 0.0 | 0.00 | 0.08 | 0.08 | 47 | 1007.7 | |
| 20260508014016 | 46 | 0.0 | 0.0 | 0.00 | 0.08 | 0.08 | 46 | 1007.7 | |
| 20260508013017 | 46 | 0.0 | 0.0 | 0.00 | 0.08 | 0.08 | 48 | 1007.6 | |
| 20260508012017 | 46 | 0.0 | 0.0 | 0.00 | 0.08 | 0.08 | 48 | 1007.6 | |
| 20260508011016 | 46 | 0.0 | 0.0 | 0.00 | 0.08 | 0.08 | 45 | 1007.5 | |
| 20260508010016 | 47 | 0.0 | 1.0 | 0.00 | 0.08 | 0.08 | 44 | 1007.4 | |
| 20260508005016 | 47 | 0.0 | 2.0 | 0.00 | 0.08 | 0.08 | 44 | 1007.4 | |
| 20260508004016 | 47 | 338 | 1.0 | 2.0 | 0.00 | 0.08 | 0.08 | 44 | 1007.3 |
| 20260508003016 | 47 | 293 | 1.0 | 3.0 | 0.00 | 0.08 | 0.08 | 44 | 1007.2 |
| 20260508002016 | 47 | 0.0 | 0.0 | 0.00 | 0.08 | 0.08 | 45 | 1007.2 | |
| 20260508001036 | 48 | 0.0 | 3.0 | 0.00 | 0.08 | 0.08 | 43 | 1007.1 | |
| 20260508000016 | 48 | 0.0 | 1.0 | 0.00 | 0.08 | 0.08 | 43 | 1006.9 | |
| 20260507235017 | 48 | 270 | 1.0 | 3.0 | 0.00 | 0.08 | 0.08 | 43 | 1006.9 |
| 20260507234016 | 48 | 293 | 1.0 | 3.0 | 0.00 | 0.08 | 0.08 | 42 | 1006.8 |
| 20260507233017 | 48 | 0.0 | 1.0 | 0.00 | 0.08 | 0.08 | 42 | 1006.8 | |
| 20260507232016 | 49 | 315 | 1.0 | 4.0 | 0.00 | 0.08 | 0.08 | 41 | 1006.7 |
| 20260507231037 | 49 | 315 | 1.0 | 4.0 | 0.00 | 0.08 | 0.08 | 42 | 1006.7 |